[[{"header":{"parameterUnit":"m.s-1","parameterCategory":1,"la1":30.2991,"la2":30.254,"lo1":-89.0895,"lo2":-89.0444,"dy":0.0017,"dx":0.0017,"nx":28,"ny":28,"refTime":"2024-04-24T21:00:00:Z","depth":0,"parameterNumber":2,"parameterNumberName":"U-component_of_WINDS"},"data":[0,0,0,0,0,0,0,0,0,0,0,0,0,0,0,0,0,0,0,0,0,0,0,0,0,0,0,0,0,0,0,0,0,0,0,0,0,0,0,0,0,0,0,0,0,0,0,0,0,0,0,0,0,0,0,0,0,0,2.0085,2.0086,0,2.0159,2.016,2.0161,2.0126,2.0124,2.0122,2.0121,2.0196,2.02,2.0204,0,0,0,0,0,0,0,0,0,0,0,0,0,1.9913,1.9916,2.0085,2.0086,2.0087,2.0159,2.016,2.0161,2.0126,2.0124,2.0122,2.012,2.0195,2.02,2.0204,0,0,0,0,0,0,0,0,0,0,0,0,0,1.9987,1.9917,2.0085,2.0078,2.0079,2.0159,2.016,2.0161,2.0127,2.0124,2.0121,2.0119,2.0194,2.0199,2.0205,2.0296,0,0,2.0222,2.0224,0,0,0,0,0,0,0,0,1.9983,1.9994,2.0078,2.0079,2.0079,2.013,2.0127,2.0206,2.0128,2.0109,2.0121,2.0117,2.0177,2.0184,2.0204,2.0299,2.0303,2.0222,2.0226,2.0228,2.023,0,0,0,0,0,0,0,1.9978,1.999,2.0114,2.008,2.008,2.0071,2.0079,2.0142,2.0158,2.011,2.0108,2.0117,2.0176,2.0198,2.0205,2.0304,2.0222,2.0227,2.0231,2.0233,2.0475,2.0477,0,0,0,0,0,0,1.9973,1.9986,2.0112,2.0117,2.0023,2.0077,2.0085,2.0117,2.0157,2.016,2.0119,2.0115,2.019,2.0199,2.0208,2.0314,2.0228,2.0234,2.0237,2.0472,2.0475,2.0479,0,0,0,0,0,0,1.997,1.9985,2.0109,2.0051,2.0066,2.0083,2.0119,2.012,2.0142,2.0164,2.0166,2.0139,2.0188,2.02,2.0273,2.0317,2.0236,2.0241,2.0468,2.0473,2.0477,2.053,0,0,0,0,0,0,1.9965,1.9984,2.0019,2.0052,2.0069,2.0174,2.0121,2.0123,2.0151,2.0147,2.0183,2.0186,2.0187,2.0265,2.0279,2.0323,2.0246,2.0464,2.047,2.0475,2.0524,2.0536,2.0546,0,0,0,0,0,1.9959,2.0031,2.0021,2.0036,2.0114,2.0177,2.0187,2.0186,2.0155,2.019,2.0204,2.0185,2.031,2.0273,2.0288,2.0335,2.0461,2.0468,2.0475,2.052,2.0534,2.0545,0,0,0,0,0,0,2.0004,2.0036,2.0024,2.011,2.0141,2.0171,2.0215,2.0201,2.0242,2.0235,2.0233,2.0242,2.0317,2.0334,2.0292,2.0423,2.0381,2.0391,2.041,2.0423,2.0433,2.0427,2.025,0,0,0,0,0,2.0023,2.0072,2.0098,2.0171,2.0187,2.0198,2.0226,2.0223,2.0255,2.0267,2.0287,2.0318,2.0364,2.0395,2.0439,2.0527,2.0533,2.0567,2.0577,2.0586,2.0594,2.0639,2.0653,2.0501,2.0501,2.0501,0,0,2.0065,2.0088,2.012,2.018,2.0204,2.0253,2.021,2.0265,2.0301,2.0276,2.0346,2.0361,2.0396,2.0477,2.0513,2.0492,2.0637,2.0594,2.0601,2.0605,2.0647,2.0662,2.0675,2.0506,2.0505,2.0504,0,0,2.0165,2.0189,2.0251,2.0275,2.0311,2.0318,2.0333,2.0365,2.0374,2.0444,2.0425,2.0469,2.0549,2.0574,2.0597,2.0705,2.0688,2.072,2.0774,2.0818,2.083,2.0841,2.0877,2.089,2.0728,2.0728,2.0728,0,2.0212,2.0286,2.0285,2.0341,2.0367,2.0346,2.0408,2.0432,2.048,2.0499,2.0475,2.0574,2.0596,2.0681,2.0707,2.0727,2.0743,2.0715,2.0829,2.0839,2.0849,2.0883,2.0897,2.0732,2.0731,2.0731,2.0731,0,2.0341,2.0393,2.0439,2.0485,2.0517,2.0576,2.0582,2.0614,2.0608,2.0617,2.0688,2.0714,2.0761,2.0782,2.0777,2.0865,2.0851,2.0828,2.0785,2.0867,2.0899,2.0912,2.0737,2.0735,2.0734,2.0734,0,0,2.0471,2.0515,2.0531,2.0551,2.0589,2.0628,2.0686,2.0732,2.0758,2.0792,2.0839,2.0907,2.0885,2.0911,2.0909,2.0948,2.1029,2.092,2.0921,2.0937,2.1125,2.114,2.1155,2.1019,2.1021,2.1023,2.1121,0,2.0572,2.0672,2.0671,2.0763,2.081,2.079,2.0839,2.0867,2.0877,2.0918,2.0929,2.0976,2.0945,2.096,2.0998,2.1011,2.1066,2.1004,2.106,2.1062,2.105,2.1172,2.1189,2.128,2.1134,2.1136,2.1138,0,2.0703,2.074,2.0836,2.0865,2.0884,2.0929,2.0969,2.1009,2.104,2.1044,2.1073,2.1064,2.1121,2.1078,2.1155,2.1113,2.1136,2.1146,2.1149,2.1152,2.1103,2.1177,2.131,2.1322,2.1158,2.1156,2.1155,0,2.0785,2.0859,2.0926,2.0944,2.0979,2.101,2.1027,2.1055,2.1082,2.1118,2.1135,2.1177,2.12,2.1233,2.1235,2.1204,2.1312,2.127,2.1316,2.1316,2.1338,2.1336,2.1474,2.1357,2.1357,2.1357,2.1357,0,2.0896,2.0955,2.0962,2.1003,2.1068,2.1067,2.1131,2.1145,2.1169,2.1211,2.1198,2.1238,2.124,2.128,2.1283,2.1345,2.1356,2.136,2.136,2.136,2.1359,2.1373,2.1366,2.136,2.136,2.1359,2.1358,0,2.0998,2.1006,2.1076,2.1104,2.1112,2.1158,2.1181,2.122,2.1228,2.1281,2.1294,2.1307,2.1354,2.136,2.1415,2.1417,2.1491,2.1485,2.148,2.1478,2.1523,2.1518,2.1673,2.1692,2.1565,2.1566,2.1567,0,2.1068,2.1112,2.1144,2.1171,2.1189,2.1233,2.126,2.126,2.1289,2.1326,2.1359,2.1405,2.1441,2.1516,2.153,2.1572,2.1565,2.1617,2.1571,2.157,2.1563,2.1559,2.1563,2.1625,2.1626,2.1627,2.1628,0,2.1189,2.119,2.1229,2.127,2.1302,2.1334,2.1364,2.1387,2.1391,2.1424,2.1471,2.1499,2.1554,2.1599,2.164,2.1656,2.1642,2.1643,2.1655,2.1655,2.1649,2.165,2.1501,2.1639,2.1638,2.1637,2.1636,2.1636,2.1275,2.1313,2.134,2.1384,2.1406,2.1434,2.1471,2.1483,2.1523,2.1567,2.1565,2.1617,2.1645,2.1698,2.1717,2.1756,2.1739,2.1758,2.1762,2.1766,2.1769,2.1645,2.1764,2.1764,2.1764,2.1763,2.1763,0,2.1393,2.141,2.145,2.1492,2.1526,2.1511,2.1542,2.1572,2.1617,2.1644,2.1679,2.1733,2.1775,2.1793,2.1834,2.1862,2.1857,2.1873,2.187,2.1873,2.1784,2.1767,2.1876,2.1876,2.1876,2.1876,2.1876,2.1876,2.1459,2.1521,2.1525,2.1597,2.1613,2.1663,2.1682,2.1708,2.1729,2.1789,2.1824,2.1835,2.1857,2.19,2.1938,2.1942,2.1957,2.1975,2.1976,2.1891,2.188,2.1869,2.1853,2.1979,2.1979,2.2062,2.2063,2.2063]},{"header":{"parameterUnit":"m.s-1","parameterCategory":1,"la1":30.2991,"la2":30.254,"lo1":-89.0895,"lo2":-89.0444,"dy":0.0017,"dx":0.0017,"nx":28,"ny":28,"refTime":"2024-04-24T21:00:00:Z","depth":0,"parameterNumber":3,"parameterNumberName":"V-component_of_WINDS"},"data":[0,0,0,0,0,0,0,0,0,0,0,0,0,0,0,0,0,0,0,0,0,0,0,0,0,0,0,0,0,0,0,0,0,0,0,0,0,0,0,0,0,0,0,0,0,0,0,0,0,0,0,0,0,0,0,0,0,0,1.02,1.0202,0,1.0345,1.0346,1.0348,1.0381,1.038,1.0379,1.0378,1.0525,1.053,1.0534,0,0,0,0,0,0,0,0,0,0,0,0,0,0.9951,0.9955,1.02,1.0202,1.0204,1.0344,1.0346,1.0348,1.0381,1.038,1.0379,1.0378,1.0523,1.0529,1.0535,0,0,0,0,0,0,0,0,0,0,0,0,0,1.0073,0.9956,1.02,1.0237,1.0242,1.0344,1.0347,1.0349,1.0382,1.038,1.0379,1.0377,1.0521,1.0528,1.0536,1.061,0,0,1.0558,1.0561,0,0,0,0,0,0,0,0,1.0066,1.0082,1.023,1.0235,1.024,1.0343,1.0312,1.0437,1.0382,1.0329,1.0378,1.0376,1.0466,1.0477,1.0508,1.0617,1.0623,1.0558,1.0563,1.0566,1.0568,0,0,0,0,0,0,0,1.0058,1.0076,1.0257,1.0232,1.0238,1.0246,1.0262,1.0336,1.0404,1.0333,1.0336,1.0353,1.0468,1.0501,1.0511,1.0626,1.0558,1.0565,1.0569,1.0572,1.0802,1.0804,0,0,0,0,0,0,1.0043,1.0069,1.0253,1.0262,1.0148,1.0252,1.0269,1.0312,1.0403,1.0415,1.0354,1.0354,1.0489,1.0503,1.0517,1.061,1.0566,1.0573,1.0577,1.08,1.0802,1.0804,0,0,0,0,0,0,1.0038,1.0059,1.0247,1.0166,1.0191,1.0258,1.0305,1.0315,1.0348,1.0419,1.0431,1.0375,1.0488,1.0506,1.0587,1.0615,1.0576,1.0582,1.0798,1.0801,1.0803,1.0797,0,0,0,0,0,0,1.003,1.0057,1.0087,1.0167,1.0195,1.0315,1.0307,1.0319,1.0361,1.0362,1.0441,1.0453,1.0489,1.0576,1.0594,1.0625,1.0588,1.0796,1.0799,1.0803,1.0795,1.0799,1.0802,0,0,0,0,0,1.0021,1.0079,1.0088,1.011,1.0234,1.0317,1.0333,1.0373,1.0363,1.0393,1.0438,1.0451,1.0609,1.0584,1.0604,1.0638,1.0794,1.0799,1.0802,1.0793,1.0798,1.0802,0,0,0,0,0,0,1.0001,1.009,1.0101,1.0187,1.0244,1.0322,1.0362,1.0377,1.0438,1.0437,1.0483,1.0501,1.0578,1.0616,1.0586,1.0714,1.0701,1.0709,1.0687,1.0692,1.0696,1.0686,1.0594,0,0,0,0,0,1.0007,1.0067,1.0142,1.021,1.0238,1.0295,1.0333,1.0358,1.0419,1.0443,1.0494,1.0552,1.0615,1.0656,1.0717,1.08,1.0817,1.0833,1.0836,1.0839,1.0846,1.0892,1.0899,1.0817,1.0817,1.0817,0,0,1.0019,1.0075,1.0111,1.0207,1.0255,1.0316,1.0315,1.038,1.0426,1.0453,1.0532,1.0571,1.0639,1.072,1.0758,1.0754,1.0872,1.0844,1.0846,1.0852,1.0896,1.0904,1.0911,1.082,1.082,1.0819,0,0,1.0072,1.0121,1.0183,1.023,1.0301,1.0338,1.0353,1.0429,1.0456,1.0536,1.0557,1.0611,1.0719,1.0766,1.0804,1.0873,1.0886,1.0891,1.0912,1.0955,1.0962,1.0968,1.0992,1.1,1.0898,1.0898,1.0898,0,1.0079,1.0172,1.0213,1.0277,1.0318,1.0345,1.0408,1.0451,1.0539,1.0567,1.056,1.0695,1.0742,1.0834,1.0851,1.0881,1.0898,1.0883,1.0958,1.0964,1.097,1.0994,1.1003,1.0898,1.0898,1.0898,1.0898,0,1.0176,1.024,1.0281,1.0365,1.0411,1.0474,1.0523,1.0565,1.0585,1.0623,1.0703,1.076,1.0834,1.0857,1.0878,1.0952,1.0947,1.0948,1.0937,1.0977,1.1,1.101,1.0898,1.0898,1.0898,1.0898,0,0,1.0223,1.0327,1.0342,1.038,1.0459,1.0509,1.0572,1.0644,1.0679,1.0737,1.0791,1.088,1.0882,1.0924,1.0951,1.0989,1.1039,1.0986,1.0988,1.0994,1.1123,1.1122,1.1132,1.1048,1.105,1.1051,1.1118,0,1.0286,1.0401,1.0439,1.0534,1.0593,1.0618,1.0673,1.0727,1.0763,1.0818,1.0857,1.092,1.0917,1.0943,1.0981,1.1025,1.1066,1.102,1.1098,1.11,1.1081,1.1144,1.1144,1.1204,1.1127,1.1128,1.113,0,1.0377,1.0437,1.0538,1.0608,1.0635,1.0684,1.0752,1.0804,1.0865,1.0888,1.0935,1.0958,1.1024,1.1007,1.1098,1.1066,1.1099,1.1125,1.1128,1.1138,1.1118,1.1156,1.1224,1.1233,1.1144,1.1143,1.1142,0,1.0401,1.0507,1.0581,1.0612,1.0697,1.073,1.0767,1.0827,1.0867,1.0926,1.0952,1.1018,1.1054,1.1103,1.1143,1.1127,1.123,1.1216,1.1251,1.125,1.1272,1.1271,1.1347,1.1292,1.1292,1.1292,1.1292,0,1.0469,1.0529,1.0593,1.0638,1.0706,1.0748,1.0814,1.0852,1.0904,1.0957,1.0982,1.1031,1.108,1.1134,1.1165,1.1235,1.1251,1.1271,1.1279,1.127,1.1267,1.1293,1.129,1.1295,1.1294,1.1294,1.1293,0,1.0508,1.0553,1.0635,1.0708,1.0727,1.0774,1.0836,1.0881,1.0917,1.0983,1.1001,1.1057,1.1122,1.1166,1.125,1.1271,1.1347,1.1353,1.1326,1.133,1.1362,1.1359,1.1459,1.1474,1.1408,1.1409,1.1409,0,1.0549,1.0596,1.0674,1.0711,1.0747,1.0807,1.0848,1.0889,1.0931,1.1003,1.1039,1.1106,1.1162,1.1265,1.1313,1.1377,1.1385,1.1416,1.1395,1.1384,1.1386,1.1383,1.1388,1.1419,1.142,1.142,1.1421,0,1.0617,1.0636,1.0694,1.076,1.0808,1.0862,1.0916,1.0944,1.0995,1.104,1.1107,1.1151,1.1236,1.1302,1.1369,1.1406,1.1422,1.1426,1.1438,1.1429,1.1412,1.1422,1.1336,1.1424,1.1424,1.1424,1.1424,1.1423,1.0658,1.0701,1.0762,1.0826,1.087,1.0919,1.0965,1.1006,1.1063,1.1135,1.1156,1.1226,1.1284,1.1377,1.1414,1.1469,1.1466,1.1482,1.1487,1.149,1.149,1.1402,1.1481,1.1481,1.1481,1.1481,1.1481,0,1.0727,1.0767,1.0825,1.09,1.0949,1.0959,1.1018,1.1059,1.1121,1.1174,1.1228,1.1304,1.1368,1.142,1.1485,1.1519,1.1528,1.1535,1.1533,1.1541,1.1489,1.1473,1.1527,1.1527,1.1527,1.1527,1.1527,1.1527,1.0769,1.0842,1.0868,1.0962,1.1002,1.1071,1.1104,1.1149,1.1191,1.1276,1.1329,1.1362,1.1415,1.1484,1.1542,1.1556,1.1579,1.1584,1.1599,1.155,1.1545,1.154,1.1525,1.1589,1.1589,1.1647,1.1647,1.1648]}]]